Time,TemperatureF,DewpointF,PressureIn,WindDirection,WindDirectionDegrees,WindSpeedMPH,WindSpeedGustMPH,Humidity,HourlyPrecipIn,Conditions,Clouds,dailyrainin,SoftwareType,DateUTC
2013-07-11 00:42:00,53.9,50.1,29.95,ENE,70,0.0,11.0,87,0.00,,,0.00,Wunderground v.1.15,2013-07-11 07:42:00,
2013-07-11 00:52:00,53.8,49.7,29.94,ENE,71,0.0,0.0,86,0.00,,,0.00,Wunderground v.1.15,2013-07-11 07:52:00,
2013-07-11 01:02:00,53.7,49.9,29.94,ENE,73,0.0,0.0,87,0.00,,,0.00,Wunderground v.1.15,2013-07-11 08:02:00,
2013-07-11 01:12:00,53.5,49.7,29.94,NE,56,0.0,1.0,87,0.00,,,0.00,Wunderground v.1.15,2013-07-11 08:12:00,
2013-07-11 01:22:00,53.1,49.3,29.94,NE,55,1.0,1.0,87,0.00,,,0.00,Wunderground v.1.15,2013-07-11 08:22:00,
2013-07-11 07:42:00,54.7,50.6,29.96,East,89,0.0,2.0,86,0.00,,,0.00,Wunderground v.1.15,2013-07-11 14:42:00,
2013-07-11 07:52:00,54.8,50.7,29.96,NE,51,0.0,0.0,86,0.00,,,0.00,Wunderground v.1.15,2013-07-11 14:52:00,
2013-07-11 08:02:00,54.8,50.7,29.96,ESE,116,1.0,3.0,86,0.00,,,0.00,Wunderground v.1.15,2013-07-11 15:02:00,
2013-07-11 08:12:00,55.0,50.9,29.96,ENE,62,1.0,1.0,86,0.00,,,0.00,Wunderground v.1.15,2013-07-11 15:12:00,
2013-07-11 08:22:00,55.2,50.8,29.96,ENE,70,1.0,1.0,85,0.00,,,0.00,Wunderground v.1.15,2013-07-11 15:22:00,
2013-07-11 08:32:00,56.1,51.3,29.96,NE,40,0.0,1.0,84,0.00,,,0.00,Wunderground v.1.15,2013-07-11 15:32:00,
2013-07-11 08:42:00,56.0,51.2,29.96,NNE,25,1.0,2.0,84,0.00,,,0.00,Wunderground v.1.15,2013-07-11 15:42:00,
2013-07-11 09:12:00,57.6,52.5,29.95,NW,317,1.0,2.0,83,0.00,,,0.00,Wunderground v.1.15,2013-07-11 16:12:00,
2013-07-11 09:22:00,58.2,52.7,29.96,West,272,2.0,2.0,82,0.00,,,0.00,Wunderground v.1.15,2013-07-11 16:22:00,
2013-07-11 12:02:00,66.8,55.1,29.94,WNW,285,4.0,4.0,66,0.00,,,0.00,Wunderground v.1.15,2013-07-11 19:02:00,
2013-07-11 12:12:00,67.0,54.8,29.94,NW,320,5.0,6.0,65,0.00,,,0.00,Wunderground v.1.15,2013-07-11 19:12:00,
2013-07-11 12:22:00,66.5,54.8,29.94,NW,311,5.0,6.0,66,0.00,,,0.00,Wunderground v.1.15,2013-07-11 19:22:00,
2013-07-11 12:32:00,66.5,54.8,29.94,NNW,330,6.0,6.0,66,0.00,,,0.00,Wunderground v.1.15,2013-07-11 19:32:00,
2013-07-11 12:42:00,66.8,55.1,29.94,WNW,283,6.0,6.0,66,0.00,,,0.00,Wunderground v.1.15,2013-07-11 19:42:00,
2013-07-11 12:52:00,67.4,55.2,29.93,NW,316,6.0,6.0,65,0.00,,,0.00,Wunderground v.1.15,2013-07-11 19:52:00,
2013-07-11 13:02:00,68.0,54.9,29.93,North,354,6.0,6.0,63,0.00,,,0.00,Wunderground v.1.15,2013-07-11 20:02:00,
2013-07-11 13:12:00,67.2,55.0,29.93,NW,318,6.0,6.0,65,0.00,,,0.00,Wunderground v.1.15,2013-07-11 20:12:00,
2013-07-11 13:22:00,69.2,56.5,29.93,NW,324,4.0,4.0,64,0.00,,,0.00,Wunderground v.1.15,2013-07-11 20:22:00,